EW5962 Weather Reports


time (UTC)temp
F
wind
direction
speed
knots
gust
knots
rain 1hr
in
rain 24hr
in
rain mn
in
humidity
%
barometer
mb
20260505185604 81 172 0.0 9.6 0.00 0.00 0.00 38 1013.1
20260505185003 80 167 0.0 12.2 0.00 0.00 0.00 36 1013.2
20260505184509 80 129 1.7 12.2 0.00 0.00 0.00 36 1013.4
20260505184102 80 151 2.6 15.6 0.00 0.00 0.00 37 1013.5
20260505183503 80 156 0.9 15.6 0.00 0.00 0.00 36 1013.7
20260505183009 80 194 0.0 9.6 0.00 0.00 0.00 38 1013.7
20260505182602 80 154 0.9 9.6 0.00 0.00 0.00 38 1013.7
20260505182002 79 143 0.0 7.8 0.00 0.00 0.00 37 1013.8
20260505181509 79 174 0.9 7.8 0.00 0.00 0.00 40 1013.8
20260505181104 79 194 0.0 5.2 0.00 0.00 0.00 38 1013.8
20260505180502 79 214 0.0 5.2 0.00 0.00 0.00 41 1013.9
20260505180009 79 171 0.0 5.2 0.00 0.00 0.00 41 1013.9
20260505175602 79 226 0.0 4.3 0.00 0.00 0.00 42 1013.9
20260505175004 78 165 0.9 3.5 0.00 0.00 0.00 41 1014.1
20260505174508 78 209 0.0 1.7 0.00 0.00 0.00 42 1014.0
20260505174104 78 183 0.0 5.2 0.00 0.00 0.00 40 1014.0
20260505173503 78 142 0.0 7.8 0.00 0.00 0.00 42 1014.1
20260505173008 78 135 0.0 7.8 0.00 0.00 0.00 40 1014.1
20260505172605 77 201 0.0 7.8 0.00 0.00 0.00 41 1014.1
20260505172003 77 162 0.0 9.6 0.00 0.00 0.00 45 1014.3
20260505171509 77 219 0.0 4.3 0.00 0.00 0.00 42 1014.2
20260505171104 77 204 0.0 4.3 0.00 0.00 0.00 42 1014.4
20260505170504 78 157 0.0 8.7 0.00 0.00 0.00 40 1014.4
20260505170016 78 146 1.7 7.8 0.00 0.00 0.00 41 1014.4
20260505165603 78 147 0.0 7.0 0.00 0.00 0.00 41 1014.4
20260505165002 79 188 0.9 6.1 0.00 0.00 0.00 40 1014.4
20260505164509 78 235 0.0 1.7 0.00 0.00 0.00 43 1014.5
20260505164103 78 191 0.0 2.6 0.00 0.00 0.00 44 1014.5
20260505163502 78 143 0.0 2.6 0.00 0.00 0.00 44 1014.5
20260505163011 78 183 0.0 1.7 0.00 0.00 0.00 45 1014.5
20260505162603 77 194 0.0 2.6 0.00 0.00 0.00 47 1014.6
20260505162003 77 224 0.0 3.5 0.00 0.00 0.00 44 1014.6
20260505161509 77 192 0.0 0.9 0.00 0.00 0.00 45 1014.6
20260505161102 77 181 0.0 4.3 0.00 0.00 0.00 49 1014.7
20260505160503 76 152 0.0 11.3 0.00 0.00 0.00 49 1014.8
20260505153008 74 171 0.0 4.3 0.00 0.00 0.00 51 1015.0
20260505152602 74 154 0.0 4.3 0.00 0.00 0.00 54 1014.9
20260505152004 74 195 0.0 1.7 0.00 0.00 0.00 53 1015.1
20260505151509 73 198 0.0 7.0 0.00 0.00 0.00 54 1015.0
20260505151105 73 174 0.0 7.0 0.00 0.00 0.00 53 1015.0
20260505150505 73 195 0.0 1.7 0.00 0.00 0.00 55 1015.0
20260505140502 66 208 0.0 1.7 0.00 0.00 0.00 67 1015.0
20260505125004 59 198 0.0 7.0 0.00 0.00 0.00 79 1015.1
20260505124509 58 188 0.0 3.5 0.00 0.00 0.00 81 1015.1
20260505124103 57 186 0.0 2.6 0.00 0.00 0.00 82 1015.0
20260505123502 57 176 0.0 0.0 0.00 0.00 0.00 83 1014.9
20260505123009 56 186 0.0 0.0 0.00 0.00 0.00 84 1015.0
20260505122602 56 159 0.0 0.0 0.00 0.00 0.00 85 1014.9
20260505122003 55 170 0.0 0.0 0.00 0.00 0.00 86 1015.0
20260505121510 55 247 0.0 0.0 0.00 0.00 0.00 86 1014.9
20260505121102 54 183 0.0 0.0 0.00 0.00 0.00 87 1014.9
20260505120503 54 203 0.0 0.0 0.00 0.00 0.00 88 1014.9
20260505120030 53 198 0.0 0.0 0.00 0.00 0.00 88 1014.9
20260505115602 52 208 0.0 0.0 0.00 0.00 0.00 89 1015.0
20260505115003 52 207 0.0 0.0 0.00 0.00 0.00 89 1014.9
20260505114511 52 199 0.0 0.0 0.00 0.00 0.00 89 1014.8
20260505114102 51 183 0.0 0.0 0.00 0.00 0.00 89 1014.7
20260505113502 51 185 0.0 0.0 0.00 0.00 0.00 89 1014.8
20260505113008 51 228 0.0 0.0 0.00 0.00 0.00 89 1014.8
20260505112602 51 196 0.0 0.0 0.00 0.00 0.00 88 1014.6
20260505112002 51 195 0.0 0.0 0.00 0.00 0.00 88 1014.7
20260505111509 51 195 0.0 0.0 0.00 0.00 0.00 88 1014.6
20260505111103 51 195 0.0 0.0 0.00 0.00 0.00 88 1014.6
20260505110502 51 195 0.0 0.0 0.00 0.00 0.00 88 1014.7
20260505102006 51 238 0.0 0.0 0.00 0.00 0.00 85 1014.5
20260505101519 51 238 0.0 0.0 0.00 0.00 0.00 85 1014.5
20260505101104 51 238 0.0 0.0 0.00 0.00 0.00 85 1014.5
20260505100503 51 238 0.0 0.0 0.00 0.00 0.00 84 1014.5
20260505100019 52 238 0.0 0.0 0.00 0.00 0.00 84 1014.4
20260505095603 52 238 0.0 0.0 0.00 0.00 0.00 84 1014.4
20260505095003 52 238 0.0 0.0 0.00 0.00 0.00 83 1014.4
20260505094510 52 238 0.0 0.0 0.00 0.00 0.00 83 1014.3
20260505094104 52 238 0.0 0.0 0.00 0.00 0.00 83 1014.3
20260505093504 52 238 0.0 0.0 0.00 0.00 0.00 83 1014.3
20260505093009 52 238 0.0 0.0 0.00 0.00 0.00 83 1014.3
20260505092604 52 238 0.0 0.0 0.00 0.00 0.00 83 1014.2
20260505092003 53 238 0.0 0.0 0.00 0.00 0.00 82 1014.1
20260505091522 53 238 0.0 0.0 0.00 0.00 0.00 82 1014.1
20260505091105 53 238 0.0 0.0 0.00 0.00 0.00 82 1013.9
20260505090503 53 195 0.0 0.0 0.00 0.00 0.00 81 1013.8
20260505090026 53 195 0.0 0.0 0.00 0.00 0.00 81 1013.9
20260505085604 53 195 0.0 0.0 0.00 0.00 0.00 81 1013.9
20260505085004 54 195 0.0 0.0 0.00 0.00 0.00 80 1013.8
20260505084510 54 195 0.0 0.0 0.00 0.00 0.00 79 1013.8
20260505084103 54 195 0.0 0.0 0.00 0.00 0.00 79 1013.8
20260505083507 54 195 0.0 0.0 0.00 0.00 0.00 78 1013.8
20260505083009 54 195 0.0 0.0 0.00 0.00 0.00 78 1013.7
20260505082604 55 195 0.0 0.0 0.00 0.00 0.00 78 1013.7
20260505082004 55 195 0.0 0.0 0.00 0.00 0.00 77 1013.6
20260505081514 55 195 0.0 0.0 0.00 0.00 0.00 76 1013.6
20260505081104 55 195 0.0 0.0 0.00 0.00 0.00 77 1013.6
20260505080504 55 195 0.0 0.0 0.00 0.00 0.00 76 1013.5
20260505080010 55 180 0.0 0.0 0.00 0.00 0.00 75 1013.5
20260505075603 55 180 0.0 0.0 0.00 0.00 0.00 76 1013.4
20260505075003 55 181 0.0 0.0 0.00 0.00 0.00 75 1013.5
20260505074510 56 181 0.0 0.0 0.00 0.00 0.00 74 1013.4
20260505074105 56 184 0.0 0.0 0.00 0.00 0.00 74 1013.4
20260505073503 56 200 0.0 0.0 0.00 0.00 0.00 74 1013.4
20260505073014 56 162 0.0 0.0 0.00 0.00 0.00 74 1013.4
20260505072605 56 162 0.0 0.0 0.00 0.00 0.00 73 1013.4
20260505072003 56 162 0.0 0.0 0.00 0.00 0.00 73 1013.4
20260505071516 56 161 0.0 0.0 0.00 0.00 0.00 72 1013.3
20260505071104 56 161 0.0 0.0 0.00 0.00 0.00 73 1013.4
20260505070507 56 160 0.0 0.0 0.00 0.00 0.00 72 1013.3
20260505070010 56 191 0.0 0.0 0.00 0.00 0.00 71 1013.3
20260505065604 56 191 0.0 0.0 0.00 0.00 0.00 70 1013.4
20260505065004 56 169 0.0 0.9 0.00 0.00 0.00 71 1013.3
20260505064525 56 190 0.0 0.9 0.00 0.00 0.00 70 1013.3
20260505064103 56 179 0.0 0.0 0.00 0.00 0.00 69 1013.3
20260505063503 56 181 0.0 1.7 0.00 0.00 0.00 69 1013.3
20260505063010 57 193 0.0 1.7 0.00 0.00 0.00 68 1013.3
20260505062604 57 193 0.0 0.0 0.00 0.00 0.00 68 1013.3
20260505062003 57 193 0.0 0.9 0.00 0.00 0.00 67 1013.3
20260505061524 57 193 0.0 0.0 0.00 0.00 0.00 66 1013.4
20260505061104 57 193 0.0 0.0 0.00 0.00 0.00 65 1013.4
20260505060503 58 193 0.0 0.9 0.00 0.00 0.00 65 1013.4
20260505060010 58 193 0.0 0.9 0.00 0.00 0.00 64 1013.4
20260505055604 58 193 0.0 0.9 0.00 0.00 0.00 64 1013.4
20260505055006 58 188 0.0 0.9 0.00 0.00 0.00 63 1013.4
20260505054509 58 175 0.0 0.9 0.00 0.00 0.00 63 1013.3
20260505054103 58 175 0.0 0.9 0.00 0.00 0.00 62 1013.2
20260505053507 58 191 0.0 0.0 0.00 0.00 0.00 61 1013.3
20260505053009 58 228 0.0 0.0 0.00 0.00 0.00 61 1013.3
20260505052604 58 229 0.0 0.0 0.00 0.00 0.00 62 1013.4
20260505052002 58 191 0.0 0.0 0.00 0.00 0.00 63 1013.5
20260505051510 58 191 0.0 0.9 0.00 0.00 0.00 61 1013.5
20260505051105 58 191 0.0 0.9 0.00 0.00 0.00 61 1013.6
20260505050503 58 191 0.0 0.0 0.00 0.00 0.00 61 1013.6
20260505041512 57 235 0.0 0.0 0.00 0.00 0.00 66 1013.5
20260505041103 57 160 0.0 0.0 0.00 0.00 0.00 66 1013.4
20260505040511 57 160 0.0 0.0 0.00 0.00 0.00 67 1013.4
20260505035503 57 160 0.0 0.0 0.00 0.00 0.00 67 1013.4
20260505035010 57 160 0.0 0.0 0.00 0.00 0.00 66 1013.5
20260505034603 57 160 0.0 0.0 0.00 0.00 0.00 64 1013.5
20260505034006 58 160 0.0 0.0 0.00 0.00 0.00 64 1013.5
20260505033510 58 160 0.0 0.0 0.00 0.00 0.00 63 1013.5
20260505033105 58 160 0.0 0.0 0.00 0.00 0.00 62 1013.6
20260505032504 58 160 0.0 0.0 0.00 0.00 0.00 62 1013.6
20260505032011 58 160 0.0 0.0 0.00 0.00 0.00 61 1013.6
20260505031611 58 160 0.0 0.0 0.00 0.00 0.00 61 1013.7
20260505031003 58 198 0.0 0.0 0.00 0.00 0.00 61 1013.6
20260505030510 59 198 0.0 0.0 0.00 0.00 0.00 60 1013.6
20260505025504 59 198 0.0 0.0 0.00 0.00 0.00 59 1013.6
20260505025009 59 198 0.0 0.0 0.00 0.00 0.00 58 1013.6
20260505024603 59 198 0.0 0.0 0.00 0.00 0.00 60 1013.6
20260505024009 60 198 0.0 0.0 0.00 0.00 0.00 59 1013.6
20260505023603 60 198 0.0 0.0 0.00 0.00 0.00 59 1013.6
20260505023006 60 198 0.0 0.0 0.00 0.00 0.00 59 1013.5
20260505022509 60 198 0.0 0.0 0.00 0.00 0.00 59 1013.5
20260505022104 60 198 0.0 0.0 0.00 0.00 0.00 58 1013.4
20260505021504 60 198 0.0 0.0 0.00 0.00 0.00 57 1013.4
20260505021012 60 198 0.0 0.0 0.00 0.00 0.00 57 1013.4
20260505020603 60 198 0.0 0.0 0.00 0.00 0.00 57 1013.4
20260505020003 60 198 0.0 0.0 0.00 0.00 0.00 57 1013.4
20260505015513 61 198 0.0 0.0 0.00 0.00 0.00 59 1013.4
20260505015103 61 198 0.0 0.0 0.00 0.00 0.00 58 1013.4
20260505014502 61 198 0.0 0.0 0.00 0.00 0.00 59 1013.4
20260505014015 61 198 0.0 0.0 0.00 0.00 0.00 59 1013.3
20260505013603 61 198 0.0 0.0 0.00 0.00 0.00 59 1013.3
20260505013003 62 198 0.0 0.0 0.00 0.00 0.00 58 1013.1
20260505012509 62 198 0.0 0.0 0.00 0.00 0.00 57 1013.1
20260505012104 62 198 0.0 0.0 0.00 0.00 0.00 58 1013.1
20260505011503 63 198 0.0 0.0 0.00 0.00 0.00 56 1013.0
20260505011009 63 198 0.0 0.0 0.00 0.00 0.00 55 1012.9
20260505010604 63 198 0.0 0.0 0.00 0.00 0.00 54 1012.8
20260505010003 64 198 0.0 0.0 0.00 0.00 0.00 52 1012.7
20260505005509 64 198 0.0 0.0 0.00 0.00 0.00 52 1012.7
20260505005104 65 198 0.0 0.0 0.00 0.00 0.00 52 1012.6
20260505004502 65 198 0.0 0.0 0.00 0.00 0.00 50 1012.6
20260505004009 66 198 0.0 0.0 0.00 0.00 0.00 49 1012.6
20260505003603 66 198 0.0 0.0 0.00 0.00 0.00 49 1012.5
20260505003002 67 198 0.0 0.0 0.00 0.00 0.00 49 1012.5
20260505002514 67 198 0.0 0.0 0.00 0.00 0.00 47 1012.5
20260505002104 68 198 0.0 0.0 0.00 0.00 0.00 47 1012.5
20260505001503 68 198 0.0 0.0 0.00 0.00 0.00 47 1012.4
20260505001017 69 198 0.0 0.0 0.00 0.00 0.00 46 1012.3
20260505000603 69 198 0.0 0.0 0.00 0.00 0.00 46 1012.4
20260505000007 69 198 0.0 0.0 0.00 0.00 0.00 44 1012.3
20260504235510 70 198 0.0 0.0 0.00 0.00 0.00 45 1012.2
20260504235104 70 198 0.0 0.0 0.00 0.00 0.00 45 1012.1
20260504234505 71 198 0.0 0.0 0.00 0.00 0.00 43 1012.1
20260504234009 71 198 0.0 0.0 0.00 0.00 0.00 43 1012.0
20260504233603 71 198 0.0 2.6 0.00 0.00 0.00 41 1012.0
20260504233004 72 184 0.0 2.6 0.00 0.00 0.00 42 1012.0
20260504232510 72 191 0.0 0.0 0.00 0.00 0.00 41 1011.9
20260504232107 73 181 0.0 1.7 0.00 0.00 0.00 40 1011.9
20260504231503 73 181 0.0 1.7 0.00 0.00 0.00 38 1011.9
20260504231009 73 181 0.0 1.7 0.00 0.00 0.00 40 1011.9
20260504230604 73 183 0.0 1.7 0.00 0.00 0.00 37 1012.0
20260504230003 74 192 0.0 2.6 0.00 0.00 0.00 40 1012.0
20260504225509 74 220 0.0 2.6 0.00 0.00 0.00 39 1011.9
20260504225103 74 174 0.0 0.0 0.00 0.00 0.00 37 1011.9
20260504224503 75 169 0.0 3.5 0.00 0.00 0.00 38 1012.0
20260504224014 75 168 0.0 3.5 0.00 0.00 0.00 35 1012.0
20260504223604 75 178 0.0 5.2 0.00 0.00 0.00 34 1012.0
20260504223003 75 214 0.0 5.2 0.00 0.00 0.00 37 1012.0
20260504222510 75 175 0.0 0.9 0.00 0.00 0.00 35 1012.1
20260504222103 75 186 0.0 0.9 0.00 0.00 0.00 35 1012.0
20260504221504 75 165 0.0 3.5 0.00 0.00 0.00 34 1012.0
20260504221010 76 173 0.0 3.5 0.00 0.00 0.00 35 1012.0
20260504220603 76 217 0.0 0.0 0.00 0.00 0.00 37 1012.0
20260504220003 76 201 0.0 3.5 0.00 0.00 0.00 35 1012.0
20260504215510 76 203 0.0 2.6 0.00 0.00 0.00 33 1012.0
20260504215102 76 176 0.0 0.9 0.00 0.00 0.00 33 1012.0
20260504214503 76 150 0.0 2.6 0.00 0.00 0.00 33 1012.0
20260504214011 76 231 0.0 2.6 0.00 0.00 0.00 33 1012.0
20260504213604 76 231 0.0 3.5 0.00 0.00 0.00 32 1012.0
20260504213003 77 163 0.0 3.5 0.00 0.00 0.00 33 1012.0
20260504212509 77 180 0.0 3.5 0.00 0.00 0.00 34 1012.0
20260504212104 77 179 0.0 3.5 0.00 0.00 0.00 33 1012.0
20260504211503 78 205 0.0 1.7 0.00 0.00 0.00 31 1012.1
20260504211009 78 209 0.0 1.7 0.00 0.00 0.00 31 1012.1
20260504210606 79 188 0.0 0.9 0.00 0.00 0.00 31 1012.1
20260504210004 80 200 0.0 0.0 0.00 0.00 0.00 30 1012.0
20260504205509 80 211 0.0 1.7 0.00 0.00 0.00 31 1012.2
20260504205104 80 195 0.0 3.5 0.00 0.00 0.00 32 1012.3
20260504204504 80 177 0.0 4.3 0.00 0.00 0.00 31 1012.3
20260504204009 81 207 0.0 4.3 0.00 0.00 0.00 31 1012.3
20260504203605 81 172 0.0 0.0 0.00 0.00 0.00 32 1012.4
20260504203006 81 194 0.0 0.0 0.00 0.00 0.00 31 1012.4
20260504202513 81 184 0.0 0.9 0.00 0.00 0.00 31 1012.5
20260504202104 81 232 0.0 5.2 0.00 0.00 0.00 32 1012.5
20260504201505 80 146 0.0 6.1 0.00 0.00 0.00 32 1012.5
20260504201009 80 195 0.0 6.1 0.00 0.00 0.00 31 1012.7
20260504200603 81 286 0.9 5.2 0.00 0.00 0.00 31 1012.7
20260504200004 81 234 0.0 4.3 0.00 0.00 0.00 32 1012.8
20260504195509 81 196 0.0 7.8 0.00 0.00 0.00 33 1012.7
20260504195104 81 26 0.9 7.8 0.00 0.00 0.00 33 1012.8
20260504194504 82 216 0.0 7.8 0.00 0.00 0.00 33 1012.9
20260504194009 81 159 0.9 7.8 0.00 0.00 0.00 32 1012.9
20260504193603 81 200 0.0 4.3 0.00 0.00 0.00 33 1012.9
20260504193003 81 169 0.0 4.3 0.00 0.00 0.00 35 1013.0
20260504192509 81 181 0.0 4.3 0.00 0.00 0.00 32 1013.1
20260504192103 81 180 0.0 0.0 0.00 0.00 0.00 35 1013.2
20260504191503 80 15 0.0 0.0 0.00 0.00 0.00 34 1013.3
20260504191009 80 198 0.0 0.9 0.00 0.00 0.00 36 1013.3
20260504190605 79 205 0.0 4.3 0.00 0.00 0.00 34 1013.3
20260504190004 79 191 0.9 4.3 0.00 0.00 0.00 33 1013.5